LOCATION_NAME,SAMPLE COLLECTION TIME,DOSE EQUIVALENT RATE (nSv/h),GAMMA COUNT RATE R02 (CPM),GAMMA COUNT RATE R03 (CPM),GAMMA COUNT RATE R04 (CPM),GAMMA COUNT RATE R05 (CPM),GAMMA COUNT RATE R06 (CPM),GAMMA COUNT RATE R07 (CPM),GAMMA COUNT RATE R08 (CPM),GAMMA COUNT RATE R09 (CPM),STATUS
ME: ORONO,01/09/2017 17:55:00,,2002.00,1178.00,321.00,156.00,97.00,108.00,66.00,25.00,APPROVED
ME: ORONO,01/09/2017 18:56:00,,2003.00,1192.00,321.00,162.00,99.00,109.00,65.00,26.00,APPROVED
ME: ORONO,01/09/2017 19:56:00,,1994.00,1191.00,321.00,158.00,101.00,114.00,64.00,26.00,APPROVED
ME: ORONO,01/09/2017 20:56:00,,2014.00,1186.00,323.00,160.00,98.00,110.00,67.00,26.00,APPROVED
ME: ORONO,01/09/2017 21:56:00,,2020.00,1205.00,322.00,162.00,98.00,113.00,68.00,27.00,APPROVED
ME: ORONO,01/09/2017 22:56:00,,2010.00,1214.00,326.00,166.00,97.00,112.00,66.00,26.00,APPROVED
ME: ORONO,01/09/2017 23:57:00,,2024.00,1214.00,327.00,161.00,97.00,110.00,69.00,26.00,APPROVED
ME: ORONO,01/10/2017 00:57:00,,2040.00,1227.00,331.00,168.00,99.00,113.00,69.00,26.00,APPROVED
ME: ORONO,01/10/2017 01:57:00,,2049.00,1236.00,327.00,166.00,100.00,112.00,73.00,27.00,APPROVED
ME: ORONO,01/10/2017 02:57:00,,2050.00,1241.00,331.00,168.00,102.00,115.00,68.00,26.00,APPROVED
ME: ORONO,01/10/2017 03:58:00,,2061.00,1256.00,339.00,171.00,100.00,115.00,71.00,26.00,APPROVED
ME: ORONO,01/10/2017 04:58:00,,2069.00,1259.00,335.00,175.00,106.00,118.00,72.00,28.00,APPROVED
ME: ORONO,01/10/2017 05:58:00,,2064.00,1275.00,337.00,176.00,103.00,119.00,72.00,27.00,APPROVED
ME: ORONO,01/10/2017 06:58:00,,2068.00,1271.00,337.00,175.00,104.00,120.00,71.00,27.00,APPROVED
ME: ORONO,01/10/2017 07:58:00,,2078.00,1269.00,340.00,177.00,104.00,120.00,71.00,29.00,APPROVED
ME: ORONO,01/10/2017 08:59:00,,2063.00,1281.00,345.00,181.00,107.00,121.00,72.00,27.00,APPROVED
ME: ORONO,01/10/2017 09:59:00,,2081.00,1285.00,342.00,181.00,106.00,121.00,71.00,27.00,APPROVED
ME: ORONO,01/10/2017 10:59:00,,2100.00,1307.00,344.00,186.00,108.00,126.00,74.00,28.00,APPROVED
ME: ORONO,01/10/2017 11:59:00,,2099.00,1316.00,351.00,186.00,108.00,124.00,76.00,29.00,APPROVED
ME: ORONO,01/10/2017 13:00:00,,2114.00,1319.00,348.00,190.00,106.00,123.00,76.00,29.00,APPROVED
ME: ORONO,01/10/2017 14:00:00,,2111.00,1331.00,352.00,193.00,108.00,125.00,77.00,29.00,APPROVED
ME: ORONO,01/10/2017 15:00:00,,2095.00,1311.00,353.00,190.00,109.00,126.00,73.00,28.00,APPROVED
ME: ORONO,01/10/2017 16:00:00,,2082.00,1283.00,349.00,185.00,106.00,125.00,71.00,28.00,APPROVED
ME: ORONO,01/10/2017 17:00:00,,2060.00,1245.00,340.00,175.00,104.00,123.00,69.00,28.00,APPROVED
ME: ORONO,01/10/2017 18:01:00,,2054.00,1242.00,339.00,172.00,101.00,121.00,67.00,26.00,APPROVED
ME: ORONO,01/10/2017 19:01:00,,2032.00,1236.00,331.00,172.00,104.00,120.00,69.00,28.00,APPROVED
ME: ORONO,01/10/2017 20:01:00,,2023.00,1227.00,332.00,174.00,104.00,118.00,70.00,27.00,APPROVED
ME: ORONO,01/10/2017 21:01:00,,2013.00,1231.00,337.00,175.00,103.00,121.00,70.00,28.00,APPROVED
ME: ORONO,01/10/2017 22:02:00,,2020.00,1231.00,335.00,173.00,102.00,119.00,69.00,27.00,APPROVED
ME: ORONO,01/10/2017 23:02:00,,2024.00,1227.00,336.00,173.00,103.00,120.00,69.00,27.00,APPROVED
ME: ORONO,01/11/2017 00:02:00,,2030.00,1233.00,329.00,176.00,103.00,118.00,68.00,28.00,APPROVED
ME: ORONO,01/11/2017 01:02:00,,2010.00,1207.00,329.00,171.00,103.00,117.00,70.00,27.00,APPROVED
ME: ORONO,01/11/2017 02:03:00,,1984.00,1186.00,324.00,164.00,102.00,114.00,68.00,27.00,APPROVED
ME: ORONO,01/11/2017 03:03:00,,1958.00,1186.00,323.00,162.00,98.00,110.00,68.00,26.00,APPROVED
ME: ORONO,01/11/2017 04:03:00,,1962.00,1195.00,322.00,163.00,101.00,113.00,70.00,26.00,APPROVED
ME: ORONO,01/11/2017 05:03:00,,1994.00,1215.00,333.00,169.00,99.00,117.00,71.00,27.00,APPROVED
ME: ORONO,01/11/2017 06:03:00,,2016.00,1238.00,335.00,171.00,102.00,117.00,74.00,27.00,APPROVED
ME: ORONO,01/11/2017 07:04:00,,2037.00,1246.00,339.00,177.00,102.00,117.00,74.00,28.00,APPROVED
ME: ORONO,01/11/2017 08:04:00,,2014.00,1241.00,341.00,170.00,103.00,117.00,72.00,26.00,APPROVED
ME: ORONO,01/11/2017 09:04:00,,1985.00,1209.00,332.00,169.00,101.00,115.00,73.00,27.00,APPROVED
ME: ORONO,01/11/2017 10:04:00,,1967.00,1196.00,328.00,167.00,102.00,111.00,72.00,27.00,APPROVED
ME: ORONO,01/11/2017 11:05:00,,1981.00,1216.00,332.00,173.00,100.00,121.00,73.00,25.00,APPROVED
ME: ORONO,01/11/2017 12:05:00,,2035.00,1288.00,347.00,185.00,107.00,124.00,80.00,29.00,APPROVED
ME: ORONO,01/11/2017 13:05:00,,2096.00,1341.00,369.00,202.00,114.00,133.00,79.00,30.00,APPROVED
ME: ORONO,01/11/2017 14:05:00,,2012.00,1279.00,353.00,188.00,107.00,128.00,77.00,30.00,APPROVED
ME: ORONO,01/11/2017 15:05:00,,1973.00,1232.00,343.00,180.00,108.00,124.00,77.00,28.00,APPROVED
ME: ORONO,01/11/2017 16:06:00,,1923.00,1207.00,340.00,176.00,106.00,125.00,79.00,27.00,APPROVED
ME: ORONO,01/11/2017 17:06:00,,1892.00,1197.00,343.00,179.00,106.00,126.00,80.00,29.00,APPROVED
ME: ORONO,01/11/2017 18:06:00,,1903.00,1229.00,350.00,185.00,111.00,129.00,82.00,29.00,APPROVED
ME: ORONO,01/11/2017 19:06:00,,1919.00,1237.00,351.00,193.00,114.00,133.00,82.00,30.00,APPROVED
ME: ORONO,01/11/2017 20:07:00,,1908.00,1233.00,358.00,191.00,112.00,137.00,85.00,29.00,APPROVED
ME: ORONO,01/11/2017 21:07:00,,1868.00,1219.00,356.00,191.00,115.00,137.00,86.00,30.00,APPROVED
ME: ORONO,01/11/2017 22:07:00,,1929.00,1255.00,363.00,194.00,117.00,136.00,85.00,31.00,APPROVED
ME: ORONO,01/11/2017 23:07:00,,2017.00,1293.00,362.00,198.00,118.00,136.00,87.00,29.00,APPROVED
ME: ORONO,01/12/2017 00:08:00,,2081.00,1329.00,368.00,195.00,119.00,137.00,88.00,30.00,APPROVED
ME: ORONO,01/12/2017 01:08:00,,2094.00,1337.00,364.00,199.00,122.00,135.00,84.00,30.00,APPROVED
ME: ORONO,01/12/2017 02:08:00,,2148.00,1356.00,372.00,198.00,117.00,134.00,84.00,30.00,APPROVED
ME: ORONO,01/12/2017 03:08:00,,2158.00,1363.00,375.00,196.00,122.00,136.00,83.00,30.00,APPROVED
ME: ORONO,01/12/2017 04:08:00,,2157.00,1369.00,374.00,198.00,120.00,137.00,84.00,29.00,APPROVED
ME: ORONO,01/12/2017 05:09:00,,2151.00,1372.00,369.00,198.00,116.00,134.00,82.00,30.00,APPROVED
ME: ORONO,01/12/2017 06:09:00,,2147.00,1353.00,373.00,200.00,119.00,135.00,86.00,30.00,APPROVED
ME: ORONO,01/12/2017 07:09:00,,2135.00,1353.00,372.00,200.00,119.00,134.00,86.00,30.00,APPROVED
ME: ORONO,01/12/2017 08:09:00,,2136.00,1352.00,368.00,203.00,119.00,137.00,83.00,30.00,APPROVED
ME: ORONO,01/12/2017 09:10:00,,2154.00,1366.00,373.00,197.00,119.00,137.00,86.00,29.00,APPROVED
ME: ORONO,01/12/2017 10:10:00,,2138.00,1358.00,369.00,199.00,118.00,135.00,86.00,29.00,APPROVED
ME: ORONO,01/12/2017 11:10:00,,2149.00,1352.00,370.00,202.00,120.00,137.00,85.00,31.00,APPROVED
ME: ORONO,01/12/2017 12:10:00,,2141.00,1364.00,376.00,198.00,120.00,138.00,86.00,30.00,APPROVED
ME: ORONO,01/12/2017 13:10:00,,2135.00,1361.00,377.00,202.00,120.00,136.00,88.00,30.00,APPROVED
ME: ORONO,01/12/2017 14:11:00,,2111.00,1339.00,371.00,198.00,120.00,137.00,88.00,31.00,APPROVED
ME: ORONO,01/12/2017 15:11:00,,2161.00,1389.00,384.00,208.00,123.00,139.00,88.00,33.00,APPROVED
ME: ORONO,01/12/2017 16:11:00,,2156.00,1391.00,386.00,206.00,121.00,147.00,89.00,30.00,APPROVED
ME: ORONO,01/12/2017 17:11:00,,2136.00,1384.00,385.00,207.00,126.00,143.00,87.00,31.00,APPROVED
ME: ORONO,01/12/2017 18:12:00,,2116.00,1372.00,385.00,207.00,123.00,143.00,90.00,33.00,APPROVED
ME: ORONO,01/12/2017 19:12:00,,2101.00,1364.00,384.00,211.00,126.00,145.00,90.00,31.00,APPROVED
ME: ORONO,01/12/2017 20:12:00,,2106.00,1361.00,382.00,211.00,121.00,145.00,90.00,30.00,APPROVED
ME: ORONO,01/12/2017 21:12:00,,2169.00,1435.00,404.00,229.00,130.00,155.00,98.00,34.00,APPROVED
ME: ORONO,01/12/2017 22:12:00,,2280.00,1540.00,431.00,250.00,137.00,164.00,100.00,36.00,APPROVED
ME: ORONO,01/12/2017 23:13:00,,2274.00,1535.00,429.00,249.00,137.00,166.00,102.00,36.00,APPROVED
ME: ORONO,01/13/2017 00:13:00,,2150.00,1411.00,399.00,224.00,131.00,153.00,95.00,34.00,APPROVED
ME: ORONO,01/13/2017 01:13:00,,2115.00,1373.00,394.00,211.00,123.00,150.00,93.00,33.00,APPROVED
ME: ORONO,01/13/2017 02:13:00,,2106.00,1374.00,389.00,213.00,125.00,149.00,93.00,30.00,APPROVED
ME: ORONO,01/13/2017 03:14:00,,2089.00,1373.00,395.00,211.00,126.00,148.00,91.00,32.00,APPROVED
ME: ORONO,01/13/2017 04:14:00,,2101.00,1383.00,391.00,215.00,126.00,150.00,93.00,32.00,APPROVED
ME: ORONO,01/13/2017 05:14:00,,2102.00,1389.00,389.00,216.00,125.00,152.00,92.00,34.00,APPROVED
ME: ORONO,01/13/2017 06:14:00,,2099.00,1388.00,392.00,220.00,130.00,151.00,96.00,34.00,APPROVED
ME: ORONO,01/13/2017 07:14:00,,2140.00,1418.00,403.00,226.00,131.00,154.00,100.00,34.00,APPROVED
ME: ORONO,01/13/2017 08:15:00,,2163.00,1434.00,408.00,227.00,131.00,157.00,96.00,34.00,APPROVED
ME: ORONO,01/13/2017 09:15:00,,2159.00,1434.00,405.00,228.00,130.00,151.00,95.00,36.00,APPROVED
ME: ORONO,01/13/2017 10:15:00,,2226.00,1464.00,403.00,227.00,132.00,156.00,95.00,33.00,APPROVED
ME: ORONO,01/13/2017 11:15:00,,2274.00,1503.00,409.00,233.00,132.00,156.00,97.00,34.00,APPROVED
ME: ORONO,01/13/2017 12:16:00,,2284.00,1493.00,407.00,230.00,132.00,154.00,95.00,34.00,APPROVED
ME: ORONO,01/13/2017 13:16:00,,2284.00,1489.00,405.00,225.00,129.00,150.00,94.00,32.00,APPROVED
ME: ORONO,01/13/2017 14:16:00,,2273.00,1455.00,392.00,212.00,125.00,144.00,89.00,30.00,APPROVED
ME: ORONO,01/13/2017 15:16:00,,2262.00,1415.00,387.00,203.00,125.00,140.00,84.00,30.00,APPROVED
ME: ORONO,01/13/2017 16:16:00,,2248.00,1397.00,381.00,198.00,122.00,138.00,85.00,29.00,APPROVED
ME: ORONO,01/13/2017 17:17:00,,2254.00,1396.00,383.00,194.00,122.00,138.00,85.00,28.00,APPROVED
ME: ORONO,01/13/2017 18:17:00,,2282.00,1404.00,385.00,199.00,123.00,136.00,87.00,28.00,APPROVED
ME: ORONO,01/13/2017 19:17:00,,2288.00,1420.00,385.00,202.00,123.00,141.00,85.00,29.00,APPROVED
ME: ORONO,01/13/2017 20:17:00,,2271.00,1424.00,389.00,205.00,122.00,137.00,85.00,31.00,APPROVED
ME: ORONO,01/13/2017 21:18:00,,2321.00,1443.00,391.00,202.00,122.00,140.00,86.00,30.00,APPROVED
ME: ORONO,01/13/2017 22:18:00,,2372.00,1467.00,390.00,204.00,120.00,141.00,82.00,29.00,APPROVED
ME: ORONO,01/13/2017 23:18:00,,2391.00,1480.00,396.00,203.00,123.00,139.00,79.00,30.00,APPROVED
ME: ORONO,01/14/2017 00:18:00,,2395.00,1475.00,399.00,200.00,126.00,141.00,84.00,29.00,APPROVED
ME: ORONO,01/14/2017 01:18:00,,2376.00,1461.00,398.00,200.00,123.00,140.00,82.00,30.00,APPROVED
ME: ORONO,01/14/2017 02:19:00,,2365.00,1474.00,396.00,199.00,121.00,138.00,82.00,30.00,APPROVED
ME: ORONO,01/14/2017 03:19:00,,2375.00,1475.00,393.00,202.00,122.00,141.00,82.00,30.00,APPROVED
ME: ORONO,01/14/2017 04:19:00,,2364.00,1471.00,394.00,203.00,126.00,136.00,85.00,29.00,APPROVED
ME: ORONO,01/14/2017 05:19:00,,2362.00,1474.00,397.00,203.00,123.00,139.00,83.00,29.00,APPROVED
ME: ORONO,01/14/2017 06:20:00,,2361.00,1472.00,397.00,201.00,126.00,137.00,84.00,32.00,APPROVED
ME: ORONO,01/14/2017 07:20:00,,2364.00,1471.00,392.00,203.00,121.00,134.00,83.00,29.00,APPROVED
ME: ORONO,01/14/2017 08:20:00,,2364.00,1476.00,391.00,201.00,124.00,140.00,84.00,30.00,APPROVED
ME: ORONO,01/14/2017 09:20:00,,2354.00,1475.00,393.00,203.00,122.00,136.00,84.00,31.00,APPROVED
ME: ORONO,01/14/2017 10:21:00,,2366.00,1474.00,394.00,204.00,122.00,139.00,84.00,29.00,APPROVED
ME: ORONO,01/14/2017 11:21:00,,2367.00,1475.00,396.00,199.00,122.00,137.00,86.00,29.00,APPROVED
ME: ORONO,01/14/2017 12:21:00,,2361.00,1466.00,389.00,203.00,123.00,138.00,84.00,30.00,APPROVED
ME: ORONO,01/14/2017 13:21:00,,2361.00,1475.00,397.00,200.00,123.00,136.00,85.00,31.00,APPROVED
ME: ORONO,01/14/2017 14:21:00,,2372.00,1479.00,393.00,201.00,126.00,135.00,85.00,31.00,APPROVED
ME: ORONO,01/14/2017 15:22:00,,2348.00,1451.00,391.00,198.00,125.00,137.00,83.00,29.00,APPROVED
ME: ORONO,01/14/2017 16:22:00,,2337.00,1431.00,389.00,195.00,120.00,136.00,81.00,30.00,APPROVED
ME: ORONO,01/14/2017 17:22:00,,2336.00,1425.00,386.00,193.00,123.00,136.00,78.00,29.00,APPROVED
ME: ORONO,01/14/2017 18:22:00,,2321.00,1415.00,382.00,192.00,119.00,136.00,78.00,29.00,APPROVED
ME: ORONO,01/14/2017 19:23:00,,2320.00,1403.00,383.00,190.00,119.00,133.00,77.00,30.00,APPROVED
ME: ORONO,01/14/2017 20:23:00,,2322.00,1405.00,383.00,192.00,120.00,135.00,76.00,29.00,APPROVED
ME: ORONO,01/14/2017 21:23:00,,2324.00,1415.00,389.00,189.00,119.00,135.00,79.00,29.00,APPROVED
ME: ORONO,01/14/2017 22:23:00,,2340.00,1424.00,387.00,190.00,120.00,136.00,77.00,29.00,APPROVED
ME: ORONO,01/14/2017 23:23:00,,2331.00,1422.00,389.00,193.00,118.00,137.00,78.00,29.00,APPROVED
ME: ORONO,01/15/2017 00:24:00,,2341.00,1429.00,388.00,191.00,119.00,137.00,80.00,29.00,APPROVED
ME: ORONO,01/15/2017 01:24:00,,2341.00,1432.00,388.00,195.00,124.00,135.00,80.00,29.00,APPROVED
ME: ORONO,01/15/2017 02:24:00,,2353.00,1442.00,391.00,194.00,122.00,135.00,79.00,29.00,APPROVED
ME: ORONO,01/15/2017 03:24:00,,2361.00,1445.00,384.00,196.00,123.00,137.00,80.00,29.00,APPROVED
ME: ORONO,01/15/2017 04:25:00,,2395.00,1449.00,397.00,197.00,123.00,139.00,78.00,28.00,APPROVED
ME: ORONO,01/15/2017 05:25:00,,2399.00,1470.00,396.00,198.00,123.00,143.00,81.00,29.00,APPROVED
ME: ORONO,01/15/2017 06:25:00,,2380.00,1481.00,404.00,201.00,126.00,143.00,83.00,30.00,APPROVED
ME: ORONO,01/15/2017 07:25:00,,2403.00,1490.00,403.00,206.00,124.00,144.00,81.00,29.00,APPROVED
ME: ORONO,01/15/2017 08:25:00,,2399.00,1494.00,403.00,206.00,124.00,144.00,84.00,30.00,APPROVED
ME: ORONO,01/15/2017 09:26:00,,2411.00,1491.00,403.00,207.00,127.00,146.00,86.00,30.00,APPROVED
ME: ORONO,01/15/2017 10:26:00,,2404.00,1498.00,402.00,209.00,129.00,145.00,83.00,31.00,APPROVED
ME: ORONO,01/15/2017 11:26:00,,2406.00,1509.00,405.00,211.00,128.00,147.00,83.00,29.00,APPROVED
ME: ORONO,01/15/2017 12:26:00,,2409.00,1506.00,410.00,211.00,127.00,150.00,84.00,31.00,APPROVED
ME: ORONO,01/15/2017 13:27:00,,2404.00,1506.00,407.00,212.00,127.00,148.00,84.00,31.00,APPROVED
ME: ORONO,01/15/2017 14:27:00,,2419.00,1510.00,409.00,211.00,127.00,148.00,83.00,30.00,APPROVED
ME: ORONO,01/15/2017 15:27:00,,2375.00,1483.00,408.00,207.00,127.00,149.00,85.00,29.00,APPROVED
ME: ORONO,01/15/2017 16:27:00,,2335.00,1455.00,399.00,209.00,124.00,141.00,83.00,30.00,APPROVED
ME: ORONO,01/15/2017 17:27:00,,2320.00,1433.00,394.00,205.00,125.00,141.00,83.00,30.00,APPROVED
ME: ORONO,01/15/2017 18:28:00,,2300.00,1430.00,396.00,201.00,124.00,140.00,81.00,29.00,APPROVED
ME: ORONO,01/15/2017 19:28:00,,2293.00,1415.00,392.00,201.00,124.00,142.00,81.00,29.00,APPROVED
ME: ORONO,01/15/2017 20:28:00,,2304.00,1416.00,389.00,196.00,122.00,139.00,80.00,29.00,APPROVED
ME: ORONO,01/15/2017 21:28:00,,2338.00,1431.00,396.00,198.00,122.00,137.00,81.00,28.00,APPROVED
ME: ORONO,01/15/2017 22:29:00,,2348.00,1434.00,394.00,193.00,124.00,141.00,79.00,28.00,APPROVED
ME: ORONO,01/15/2017 23:29:00,,2363.00,1455.00,396.00,193.00,122.00,138.00,81.00,29.00,APPROVED
ME: ORONO,01/16/2017 00:29:00,,2367.00,1453.00,394.00,197.00,124.00,139.00,80.00,30.00,APPROVED
ME: ORONO,01/16/2017 01:29:00,,2369.00,1467.00,393.00,201.00,125.00,141.00,81.00,30.00,APPROVED
ME: ORONO,01/16/2017 02:30:00,,2388.00,1468.00,395.00,203.00,124.00,139.00,84.00,29.00,APPROVED
ME: ORONO,01/16/2017 03:30:00,,2378.00,1486.00,398.00,206.00,124.00,139.00,82.00,31.00,APPROVED
ME: ORONO,01/16/2017 04:30:00,,2415.00,1495.00,403.00,206.00,126.00,142.00,84.00,30.00,APPROVED
ME: ORONO,01/16/2017 05:30:00,,2404.00,1505.00,401.00,209.00,124.00,142.00,84.00,31.00,APPROVED
ME: ORONO,01/16/2017 06:30:00,,2412.00,1506.00,406.00,212.00,127.00,142.00,83.00,31.00,APPROVED
ME: ORONO,01/16/2017 07:31:00,,2397.00,1511.00,406.00,208.00,124.00,146.00,85.00,31.00,APPROVED
ME: ORONO,01/16/2017 08:31:00,,2399.00,1521.00,408.00,210.00,128.00,143.00,87.00,30.00,APPROVED
ME: ORONO,01/16/2017 09:31:00,,2419.00,1519.00,408.00,211.00,128.00,144.00,85.00,32.00,APPROVED
ME: ORONO,01/16/2017 10:31:00,,2419.00,1518.00,407.00,213.00,127.00,143.00,85.00,32.00,APPROVED
ME: ORONO,01/16/2017 11:32:00,,2403.00,1528.00,405.00,210.00,126.00,146.00,89.00,31.00,APPROVED
ME: ORONO,01/16/2017 12:32:00,,2423.00,1535.00,408.00,217.00,128.00,143.00,88.00,30.00,APPROVED
ME: ORONO,01/16/2017 13:32:00,,2438.00,1562.00,412.00,221.00,130.00,147.00,89.00,31.00,APPROVED
ME: ORONO,01/16/2017 14:32:00,,2429.00,1548.00,413.00,219.00,133.00,146.00,88.00,30.00,APPROVED
ME: ORONO,01/16/2017 15:33:00,,2380.00,1488.00,413.00,211.00,126.00,148.00,84.00,31.00,APPROVED
ME: ORONO,01/16/2017 16:34:00,,2333.00,1457.00,400.00,206.00,125.00,145.00,83.00,30.00,APPROVED
ME: ORONO,01/16/2017 17:34:00,,2318.00,1448.00,398.00,204.00,124.00,142.00,85.00,30.00,APPROVED
ME: ORONO,01/16/2017 18:34:00,,2315.00,1435.00,392.00,202.00,125.00,140.00,84.00,29.00,APPROVED
ME: ORONO,01/16/2017 19:34:00,,2305.00,1427.00,387.00,202.00,125.00,139.00,85.00,30.00,APPROVED
ME: ORONO,01/16/2017 20:35:00,,2294.00,1430.00,393.00,200.00,126.00,139.00,84.00,30.00,APPROVED
ME: ORONO,01/16/2017 21:35:00,,2281.00,1420.00,390.00,204.00,124.00,136.00,88.00,30.00,APPROVED
ME: ORONO,01/16/2017 22:35:00,,2285.00,1421.00,390.00,207.00,128.00,140.00,85.00,31.00,APPROVED
ME: ORONO,01/16/2017 23:35:00,,2283.00,1437.00,391.00,205.00,125.00,141.00,86.00,32.00,APPROVED
ME: ORONO,01/17/2017 00:35:00,,2289.00,1433.00,398.00,205.00,127.00,142.00,88.00,31.00,APPROVED
ME: ORONO,01/17/2017 01:36:00,,2299.00,1450.00,393.00,208.00,125.00,143.00,87.00,31.00,APPROVED
ME: ORONO,01/17/2017 02:36:00,,2298.00,1438.00,403.00,206.00,126.00,144.00,86.00,30.00,APPROVED
ME: ORONO,01/17/2017 03:36:00,,2325.00,1448.00,401.00,210.00,126.00,144.00,86.00,29.00,APPROVED
ME: ORONO,01/17/2017 04:36:00,,2332.00,1470.00,408.00,216.00,127.00,149.00,86.00,33.00,APPROVED
ME: ORONO,01/17/2017 05:37:00,,2319.00,1471.00,401.00,217.00,131.00,149.00,88.00,31.00,APPROVED
ME: ORONO,01/17/2017 06:37:00,,2310.00,1470.00,404.00,217.00,130.00,148.00,88.00,31.00,APPROVED
ME: ORONO,01/17/2017 07:37:00,,2290.00,1457.00,396.00,216.00,127.00,148.00,89.00,32.00,APPROVED
ME: ORONO,01/17/2017 08:37:00,,2297.00,1460.00,402.00,212.00,128.00,147.00,88.00,31.00,APPROVED
ME: ORONO,01/17/2017 09:37:00,,2279.00,1451.00,407.00,215.00,127.00,149.00,89.00,30.00,APPROVED
ME: ORONO,01/17/2017 10:38:00,,2292.00,1463.00,399.00,216.00,128.00,147.00,90.00,32.00,APPROVED
ME: ORONO,01/17/2017 11:38:00,,2299.00,1465.00,409.00,220.00,131.00,148.00,90.00,31.00,APPROVED
ME: ORONO,01/17/2017 12:38:00,,2289.00,1466.00,407.00,222.00,131.00,147.00,91.00,31.00,APPROVED
ME: ORONO,01/17/2017 13:38:00,,2291.00,1454.00,403.00,218.00,129.00,148.00,89.00,32.00,APPROVED
ME: ORONO,01/17/2017 14:39:00,,2228.00,1427.00,397.00,216.00,130.00,147.00,89.00,31.00,APPROVED
ME: ORONO,01/17/2017 15:39:00,,2150.00,1386.00,393.00,211.00,127.00,144.00,90.00,32.00,APPROVED
ME: ORONO,01/17/2017 16:39:00,,2130.00,1365.00,394.00,212.00,128.00,145.00,91.00,32.00,APPROVED
ME: ORONO,01/17/2017 17:39:00,,2092.00,1365.00,395.00,212.00,129.00,145.00,90.00,32.00,APPROVED
ME: ORONO,01/17/2017 18:39:00,,2056.00,1336.00,394.00,210.00,125.00,146.00,92.00,33.00,APPROVED
ME: ORONO,01/17/2017 19:40:00,,2072.00,1347.00,390.00,209.00,126.00,143.00,92.00,32.00,APPROVED
ME: ORONO,01/17/2017 20:40:00,,2110.00,1355.00,395.00,208.00,130.00,142.00,91.00,32.00,APPROVED
ME: ORONO,01/17/2017 21:40:00,,2186.00,1396.00,390.00,210.00,124.00,140.00,88.00,31.00,APPROVED
ME: ORONO,01/17/2017 22:40:00,,2277.00,1408.00,394.00,204.00,122.00,140.00,85.00,30.00,APPROVED
ME: ORONO,01/17/2017 23:41:00,,2290.00,1433.00,396.00,203.00,124.00,142.00,85.00,29.00,APPROVED
ME: ORONO,01/18/2017 00:41:00,,2319.00,1433.00,394.00,198.00,123.00,139.00,81.00,30.00,APPROVED
ME: ORONO,01/18/2017 01:41:00,,2340.00,1443.00,396.00,203.00,122.00,143.00,80.00,30.00,APPROVED
ME: ORONO,01/18/2017 16:15:00,,2382.00,1433.00,392.00,191.00,119.00,138.00,78.00,29.00,APPROVED
ME: ORONO,01/18/2017 17:15:00,,2335.00,1424.00,385.00,186.00,119.00,133.00,80.00,30.00,APPROVED
ME: ORONO,01/18/2017 18:16:00,,2326.00,1422.00,383.00,189.00,121.00,133.00,80.00,29.00,APPROVED
ME: ORONO,01/18/2017 19:16:00,,2330.00,1415.00,389.00,189.00,120.00,137.00,81.00,30.00,APPROVED
ME: ORONO,01/18/2017 20:16:00,,2320.00,1402.00,387.00,188.00,120.00,135.00,78.00,29.00,APPROVED
ME: ORONO,01/18/2017 21:16:00,,2319.00,1422.00,385.00,192.00,120.00,136.00,80.00,29.00,APPROVED
ME: ORONO,01/18/2017 22:17:00,,2326.00,1422.00,385.00,188.00,118.00,134.00,78.00,29.00,APPROVED
ME: ORONO,01/18/2017 23:17:00,,2339.00,1422.00,387.00,194.00,119.00,133.00,80.00,28.00,APPROVED
ME: ORONO,01/19/2017 00:17:00,,2331.00,1425.00,384.00,195.00,119.00,134.00,79.00,27.00,APPROVED
ME: ORONO,01/19/2017 01:17:00,,2337.00,1418.00,385.00,190.00,121.00,132.00,80.00,28.00,APPROVED
ME: ORONO,01/19/2017 02:18:00,,2338.00,1413.00,383.00,194.00,119.00,134.00,81.00,29.00,APPROVED
ME: ORONO,01/19/2017 03:18:00,,2343.00,1423.00,389.00,191.00,122.00,136.00,80.00,29.00,APPROVED
ME: ORONO,01/19/2017 04:18:00,,2348.00,1419.00,386.00,191.00,121.00,136.00,80.00,28.00,APPROVED
ME: ORONO,01/19/2017 05:18:00,,2331.00,1423.00,382.00,191.00,121.00,133.00,80.00,29.00,APPROVED
ME: ORONO,01/19/2017 06:19:00,,2351.00,1422.00,385.00,190.00,121.00,137.00,82.00,30.00,APPROVED
ME: ORONO,01/19/2017 07:19:00,,2381.00,1451.00,400.00,198.00,121.00,139.00,81.00,29.00,APPROVED
ME: ORONO,01/19/2017 08:19:00,,2482.00,1531.00,419.00,212.00,127.00,146.00,84.00,31.00,APPROVED
ME: ORONO,01/19/2017 09:19:00,,2470.00,1540.00,419.00,214.00,127.00,150.00,84.00,32.00,APPROVED
ME: ORONO,01/19/2017 10:19:00,,2476.00,1536.00,413.00,213.00,127.00,146.00,87.00,30.00,APPROVED
ME: ORONO,01/19/2017 11:20:00,,2431.00,1515.00,411.00,209.00,126.00,147.00,84.00,29.00,APPROVED
ME: ORONO,01/19/2017 12:20:00,,2423.00,1501.00,405.00,207.00,124.00,145.00,84.00,31.00,APPROVED
ME: ORONO,01/19/2017 13:20:00,,2388.00,1465.00,395.00,202.00,124.00,145.00,82.00,30.00,APPROVED
ME: ORONO,01/19/2017 14:20:00,,2349.00,1446.00,392.00,195.00,120.00,139.00,81.00,30.00,APPROVED
ME: ORONO,01/19/2017 15:21:00,,2348.00,1440.00,389.00,196.00,123.00,136.00,79.00,29.00,APPROVED
ME: ORONO,01/19/2017 16:21:00,,2312.00,1425.00,384.00,194.00,121.00,139.00,82.00,29.00,APPROVED
ME: ORONO,01/19/2017 17:21:00,,2300.00,1420.00,386.00,194.00,121.00,134.00,82.00,30.00,APPROVED
ME: ORONO,01/19/2017 18:21:00,,2289.00,1409.00,385.00,196.00,123.00,133.00,83.00,29.00,APPROVED
ME: ORONO,01/19/2017 19:21:00,,2266.00,1399.00,381.00,198.00,120.00,135.00,83.00,29.00,APPROVED
ME: ORONO,01/19/2017 20:22:00,,2270.00,1418.00,381.00,200.00,121.00,135.00,85.00,28.00,APPROVED
ME: ORONO,01/19/2017 21:22:00,,2267.00,1403.00,384.00,196.00,120.00,136.00,85.00,30.00,APPROVED
ME: ORONO,01/19/2017 22:22:00,,2288.00,1427.00,388.00,199.00,121.00,136.00,84.00,29.00,APPROVED
ME: ORONO,01/19/2017 23:22:00,,2293.00,1434.00,388.00,200.00,119.00,135.00,83.00,29.00,APPROVED
ME: ORONO,01/20/2017 00:23:00,,2314.00,1440.00,392.00,199.00,124.00,137.00,85.00,30.00,APPROVED
ME: ORONO,01/20/2017 01:23:00,,2315.00,1440.00,388.00,202.00,122.00,138.00,85.00,31.00,APPROVED
ME: ORONO,01/20/2017 02:23:00,,2310.00,1444.00,391.00,205.00,121.00,138.00,86.00,29.00,APPROVED
ME: ORONO,01/20/2017 03:23:00,,2311.00,1447.00,391.00,205.00,120.00,138.00,86.00,30.00,APPROVED
ME: ORONO,01/20/2017 04:23:00,,2319.00,1446.00,392.00,204.00,125.00,137.00,88.00,30.00,APPROVED
ME: ORONO,01/20/2017 05:24:00,,2325.00,1448.00,389.00,203.00,122.00,141.00,87.00,31.00,APPROVED
ME: ORONO,01/20/2017 06:24:00,,2324.00,1450.00,389.00,202.00,122.00,138.00,88.00,30.00,APPROVED
ME: ORONO,01/20/2017 07:24:00,,2318.00,1448.00,388.00,204.00,124.00,135.00,84.00,30.00,APPROVED
ME: ORONO,01/20/2017 08:24:00,,2306.00,1441.00,391.00,202.00,122.00,140.00,86.00,30.00,APPROVED
ME: ORONO,01/20/2017 09:25:00,,2315.00,1445.00,391.00,199.00,125.00,138.00,86.00,29.00,APPROVED
ME: ORONO,01/20/2017 10:25:00,,2332.00,1443.00,393.00,203.00,122.00,138.00,88.00,30.00,APPROVED
ME: ORONO,01/20/2017 11:25:00,,2317.00,1455.00,391.00,200.00,121.00,140.00,87.00,31.00,APPROVED
ME: ORONO,01/20/2017 12:25:00,,2310.00,1447.00,390.00,203.00,125.00,136.00,87.00,30.00,APPROVED
ME: ORONO,01/20/2017 13:25:00,,2321.00,1447.00,393.00,203.00,124.00,140.00,84.00,30.00,APPROVED
ME: ORONO,01/20/2017 14:26:00,,2326.00,1450.00,387.00,204.00,124.00,136.00,85.00,29.00,APPROVED